When you browse on this site, cookies collect data to enhance your experience and personalize the content and advertising you see.
Visit our Privacy Policy to learn more. By continuing to use the site, you agree to this use of cookies and data.
  • In Slovakia
  • List of Countries
  • For 7 days
  • Water Temperature
  • Weather Map
  • Weather Widgets
  • user-avatar
    Login

    Hourly Weather Melbourne

    Today, 24 January, Friday

    Time Temperature Precipitation Wind Pressure Humidity
    00:00 +14°C° 0 mm 3 mps 754 mmHg 52%
    01:00 +14°C° 0 mm 3 mps 754 mmHg 54%
    02:00 +13°C° 0 mm 3 mps 754 mmHg 56%
    03:00 +13°C° 0 mm 4 mps 754 mmHg 58%
    04:00 +13°C° 0 mm 4 mps 754 mmHg 61%
    05:00 +13°C° 0 mm 4 mps 755 mmHg 61%
    06:00 +14°C° 0 mm 4 mps 756 mmHg 61%
    07:00 +14°C° 0 mm 4 mps 757 mmHg 61%
    08:00 +17°C° 0 mm 4 mps 757 mmHg 56%
    09:00 +19°C° 0 mm 4 mps 757 mmHg 51%
    10:00 +20°C° 0 mm 4 mps 757 mmHg 46%
    11:00 +21°C° 0 mm 4 mps 757 mmHg 44%
    12:00 +23°C° 0 mm 4 mps 757 mmHg 41%
    13:00 +25°C° 0 mm 4 mps 757 mmHg 39%
    14:00 +25°C° 0 mm 4 mps 757 mmHg 39%
    15:00 +25°C° 0 mm 4 mps 757 mmHg 40%
    16:00 +25°C° 0 mm 4 mps 756 mmHg 40%
    17:00 +24°C° 0 mm 3 mps 757 mmHg 43%
    18:00 +24°C° 0 mm 3 mps 757 mmHg 46%
    19:00 +22°C° 0 mm 3 mps 758 mmHg 49%
    20:00 +21°C° 0 mm 2 mps 758 mmHg 52%
    21:00 +20°C° 0 mm 2 mps 758 mmHg 56%
    22:00 +20°C° 0 mm 1 mps 759 mmHg 59%
    23:00 +18°C° 0 mm 2 mps 759 mmHg 61%

    Tomorrow, 25 January, Saturday

    Time Temperature Precipitation Wind Pressure Humidity
    00:00 +18°C° 0 mm 2 mps 759 mmHg 63%
    01:00 +17°C° 0 mm 2 mps 759 mmHg 65%
    02:00 +17°C° 0 mm 2 mps 758 mmHg 66%
    03:00 +16°C° 0 mm 2 mps 758 mmHg 67%
    04:00 +16°C° 0 mm 1 mps 758 mmHg 69%
    05:00 +17°C° 0 mm 2 mps 759 mmHg 67%
    06:00 +17°C° 0 mm 2 mps 759 mmHg 65%
    07:00 +18°C° 0 mm 2 mps 759 mmHg 64%
    08:00 +20°C° 0 mm 2 mps 759 mmHg 57%
    09:00 +23°C° 0 mm 2 mps 759 mmHg 50%
    10:00 +25°C° 0 mm 2 mps 759 mmHg 42%
    11:00 +27°C° 0 mm 2 mps 759 mmHg 39%
    12:00 +28°C° 0 mm 2 mps 759 mmHg 35%
    13:00 +30°C° 0 mm 2 mps 758 mmHg 32%
    14:00 +30°C° 0 mm 2 mps 758 mmHg 32%
    15:00 +30°C° 0 mm 2 mps 757 mmHg 33%
    16:00 +30°C° 0 mm 2 mps 757 mmHg 34%
    17:00 +28°C° 0 mm 3 mps 757 mmHg 42%
    18:00 +26°C° 0 mm 3 mps 758 mmHg 51%
    19:00 +23°C° 0 mm 4 mps 758 mmHg 59%
    20:00 +22°C° 0 mm 4 mps 758 mmHg 64%
    21:00 +21°C° 0 mm 3 mps 759 mmHg 69%
    22:00 +19°C° 0 mm 3 mps 759 mmHg 75%
    23:00 +19°C° 0 mm 2 mps 759 mmHg 76%

    Day after tomorrow, 26 January, Sunday

    Time Temperature Precipitation Wind Pressure Humidity
    00:00 +19°C° 0 mm 2 mps 759 mmHg 77%
    01:00 +19°C° 0 mm 1 mps 758 mmHg 79%
    02:00 +19°C° 0 mm 1 mps 758 mmHg 80%
    03:00 +18°C° 0 mm 1 mps 758 mmHg 80%
    04:00 +18°C° 0 mm 1 mps 758 mmHg 81%
    05:00 +19°C° 0 mm 1 mps 758 mmHg 79%
    06:00 +17°C° 0 mm 0 mps 759 mmHg 76%
    07:00 +18°C° 0 mm 0 mps 759 mmHg 74%
    08:00 +22°C° 0 mm 1 mps 759 mmHg 66%
    09:00 +24°C° 0 mm 1 mps 759 mmHg 59%
    10:00 +26°C° 0 mm 2 mps 759 mmHg 51%
    11:00 +27°C° 0 mm 2 mps 758 mmHg 48%
    12:00 +28°C° 0 mm 2 mps 758 mmHg 45%
    13:00 +29°C° 0 mm 2 mps 758 mmHg 43%
    14:00 +29°C° 0 mm 3 mps 757 mmHg 45%
    15:00 +28°C° 0 mm 4 mps 757 mmHg 47%
    16:00 +28°C° 0 mm 5 mps 757 mmHg 50%
    17:00 +26°C° 0 mm 5 mps 758 mmHg 58%
    18:00 +23°C° 0 mm 5 mps 758 mmHg 65%
    19:00 +22°C° 0 mm 4 mps 758 mmHg 73%
    20:00 +21°C° 0 mm 4 mps 759 mmHg 76%
    21:00 +20°C° 0 mm 4 mps 759 mmHg 80%
    22:00 +19°C° 0 mm 3 mps 760 mmHg 83%
    23:00 +19°C° 0 mm 3 mps 759 mmHg 82%

    27 January, Monday

    Time Temperature Precipitation Wind Pressure Humidity
    00:00 +18°C° 0 mm 3 mps 759 mmHg 82%
    01:00 +18°C° 0 mm 3 mps 758 mmHg 81%
    02:00 +18°C° 0 mm 2 mps 758 mmHg 81%
    03:00 +19°C° 0 mm 1 mps 758 mmHg 81%
    04:00 +18°C° 0 mm 1 mps 758 mmHg 81%
    05:00 +19°C° 0 mm 1 mps 757 mmHg 80%
    06:00 +19°C° 0 mm 1 mps 757 mmHg 78%
    07:00 +19°C° 0 mm 1 mps 757 mmHg 77%
    08:00 +21°C° 0 mm 1 mps 757 mmHg 69%
    09:00 +23°C° 0 mm 1 mps 757 mmHg 61%
    10:00 +25°C° 0 mm 1 mps 758 mmHg 54%
    11:00 +26°C° 0 mm 2 mps 757 mmHg 53%
    12:00 +26°C° 0 mm 3 mps 757 mmHg 51%
    13:00 +26°C° 0 mm 4 mps 756 mmHg 50%
    14:00 +26°C° 0 mm 4 mps 756 mmHg 50%
    15:00 +26°C° 0 mm 4 mps 756 mmHg 50%
    16:00 +26°C° 0 mm 4 mps 756 mmHg 50%
    17:00 +25°C° 0 mm 4 mps 756 mmHg 55%
    18:00 +22°C° 0 mm 4 mps 756 mmHg 60%
    19:00 +21°C° 0 mm 4 mps 756 mmHg 65%
    20:00 +20°C° 0 mm 3 mps 757 mmHg 68%
    21:00 +19°C° 0 mm 3 mps 757 mmHg 72%
    22:00 +18°C° 0 mm 2 mps 758 mmHg 75%
    23:00 +17°C° 0 mm 2 mps 758 mmHg 76%

    28 January, Tuesday

    Time Temperature Precipitation Wind Pressure Humidity
    00:00 +18°C° 0 mm 1 mps 757 mmHg 78%
    01:00 +16°C° 0 mm 1 mps 757 mmHg 79%
    02:00 +16°C° 0 mm 1 mps 757 mmHg 80%
    03:00 +16°C° 0 mm 1 mps 757 mmHg 81%
    04:00 +16°C° 0 mm 1 mps 757 mmHg 82%
    05:00 +16°C° 0 mm 1 mps 757 mmHg 80%
    06:00 +18°C° 0 mm 1 mps 758 mmHg 78%
    07:00 +18°C° 0 mm 1 mps 758 mmHg 75%
    08:00 +19°C° 0 mm 2 mps 758 mmHg 67%
    09:00 +21°C° 0 mm 2 mps 758 mmHg 59%
    10:00 +22°C° 0 mm 3 mps 759 mmHg 51%
    11:00 +24°C° 0 mm 3 mps 758 mmHg 47%
    12:00 +26°C° 0 mm 3 mps 758 mmHg 44%
    13:00 +27°C° 0 mm 3 mps 758 mmHg 41%
    14:00 +27°C° 0 mm 4 mps 758 mmHg 42%
    15:00 +27°C° 0 mm 5 mps 758 mmHg 44%
    16:00 +26°C° 0 mm 5 mps 758 mmHg 46%
    17:00 +25°C° 0 mm 5 mps 758 mmHg 52%
    18:00 +22°C° 0 mm 5 mps 758 mmHg 59%
    19:00 +21°C° 0 mm 4 mps 759 mmHg 65%
    20:00 +20°C° 0 mm 4 mps 759 mmHg 69%
    21:00 +19°C° 0 mm 3 mps 760 mmHg 73%
    22:00 +18°C° 0 mm 3 mps 761 mmHg 76%
    23:00 +17°C° 0 mm 2 mps 760 mmHg 76%

    29 January, Wednesday

    Time Temperature Precipitation Wind Pressure Humidity
    00:00 +17°C° 0 mm 2 mps 760 mmHg 76%
    01:00 +17°C° 0 mm 2 mps 760 mmHg 76%
    02:00 +16°C° 0 mm 2 mps 760 mmHg 77%
    03:00 +16°C° 0 mm 1 mps 760 mmHg 78%
    04:00 +16°C° 0 mm 1 mps 760 mmHg 79%
    05:00 +16°C° 0 mm 1 mps 760 mmHg 78%
    06:00 +18°C° 0 mm 1 mps 760 mmHg 76%
    07:00 +18°C° 0 mm 1 mps 760 mmHg 74%
    08:00 +21°C° 0 mm 1 mps 760 mmHg 64%
    09:00 +23°C° 0 mm 1 mps 760 mmHg 54%
    10:00 +25°C° 0 mm 1 mps 760 mmHg 45%
    11:00 +26°C° 0 mm 2 mps 760 mmHg 41%
    12:00 +28°C° 0 mm 2 mps 760 mmHg 37%
    13:00 +29°C° 0 mm 3 mps 759 mmHg 33%
    14:00 +29°C° 0 mm 3 mps 759 mmHg 34%
    15:00 +29°C° 0 mm 3 mps 759 mmHg 34%
    16:00 +29°C° 0 mm 3 mps 758 mmHg 35%
    17:00 +28°C° 0 mm 3 mps 759 mmHg 39%
    18:00 +26°C° 0 mm 3 mps 759 mmHg 43%
    19:00 +25°C° 0 mm 3 mps 759 mmHg 48%
    20:00 +24°C° 0 mm 2 mps 759 mmHg 52%
    21:00 +21°C° 0 mm 2 mps 759 mmHg 57%
    22:00 +21°C° 0 mm 1 mps 760 mmHg 62%
    23:00 +20°C° 0 mm 1 mps 759 mmHg 63%
    Show more